Weather History for Morrisville, VT

Change the Weather History Date:

Monday, January 21, 2013

  Actual Average Record
Temperature  
Mean Temperature 8 °F 15 °F  
Max Temperature 17 °F 26 °F 53 °F (2006)
Min Temperature -2 °F 4 °F -18 °F (2005)
Degree Days  
Heating Degree Days 57 50  
Month to date heating degree days 937 1028  
Since 1 July heating degree days 3781 4166  
Cooling Degree Days 0 0  
Month to date cooling degree days 0 0  
Year to date cooling degree days 0 0  
Moisture  
Dew Point 1 °F    
Average Humidity 67    
Maximum Humidity 87    
Minimum Humidity 46    
Precipitation  
Precipitation T in 0.07 in 0.16 in (1949)
Month to date precipitation 0.49 1.80  
Year to date precipitation 0.49 1.80  
Sea Level Pressure  
Sea Level Pressure 29.98 in    
Wind  
Wind Speed 4 mph (North)    
Max Wind Speed 15 mph    
Max Gust Speed 18 mph    
Visibility 8 miles    
Events Snow    
T = Trace of Precipitation, MM = Missing Value Source: NWS Daily Summary

Daily Weather History Graph

Daily Weather History Graph

Search for Another Location

Airport:

Trip Planner

Search our weather history database for the weather conditions in past years. The results will help you decide how hot, cold, wet, or windy it might be!

Date:

Astronomy

Jan. 21, 2013 Rise Set
Actual Time 7:19 AM EST 4:44 PM EST
Civil Twilight 6:47 AM EST 5:16 PM EST
Nautical Twilight 6:11 AM EST 5:52 PM EST
Astronomical Twilight 5:37 AM EST 6:26 PM EST
Moon 12:21 PM EST (1/21) 2:45 AM EST (1/21)
Length of Visible Light 10h 29m
Length of Day
9h 25m
Waxing Gibbous, 75% of the Moon is Illuminated
Jan 21
Waxing Gibbous
Jan 26
Full
Feb 3
Last Quarter
Feb 10
New
Feb 17
First Quarter

Hourly Weather History & Observations

Time (EST) Temp. Windchill Dew Point Humidity Pressure Visibility Wind Dir Wind Speed Gust Speed Precip Events Conditions
12:33 AM 10.4 °F 0.8 °F 3.2 °F 73% 29.94 in 3.0 mi NNE 5.8 mph - 0.00 in Snow Light Snow
12:42 AM 10.4 °F -1.5 °F 3.2 °F 73% 29.94 in 4.0 mi NNE 8.1 mph - 0.00 in Snow Light Snow
12:54 AM 10.0 °F -1.9 °F 3.0 °F 73% 29.98 in 4.0 mi NNE 8.1 mph - 0.00 in Snow Light Snow
1:08 AM 10.4 °F -1.5 °F 1.4 °F 67% 29.94 in 5.0 mi NNE 8.1 mph - 0.00 in Snow Light Snow
1:54 AM 8.1 °F -5.3 °F 1.0 °F 73% 29.99 in 7.0 mi North 9.2 mph - 0.00 in   Overcast
2:54 AM 7.0 °F -9.8 °F -0.0 °F 73% 30.01 in 5.0 mi NNW 13.8 mph - N/A   Haze
3:54 AM 6.1 °F -8.7 °F -2.0 °F 69% 30.01 in 10.0 mi NNW 10.4 mph - N/A   Mostly Cloudy
4:54 AM 5.0 °F -10.0 °F -2.9 °F 70% 30.02 in 10.0 mi NNW 10.4 mph - N/A   Mostly Cloudy
5:54 AM 3.9 °F -3.4 °F -4.0 °F 70% 30.04 in 10.0 mi Variable 3.5 mph - N/A   Clear
6:54 AM 1.0 °F -8.7 °F -5.1 °F 75% 30.06 in 10.0 mi South 4.6 mph - N/A   Clear
7:54 AM -2.0 °F - -6.0 °F 83% 30.08 in 10.0 mi Calm Calm - N/A   Clear
8:54 AM 1.9 °F - -2.0 °F 83% 30.08 in 10.0 mi Calm Calm - N/A   Clear
9:54 AM 8.1 °F 1.4 °F -2.0 °F 64% 30.07 in 10.0 mi North 3.5 mph - N/A   Clear
10:54 AM 10.0 °F - -0.9 °F 61% 30.06 in 10.0 mi Calm Calm - N/A   Mostly Cloudy
11:54 AM 12.9 °F - -0.0 °F 56% 30.03 in 10.0 mi Calm Calm - N/A   Overcast
12:54 PM 16.0 °F 10.4 °F -2.0 °F 45% 29.98 in 10.0 mi SSE 3.5 mph - N/A   Clear
1:54 PM 17.1 °F 11.7 °F -0.0 °F 47% 29.96 in 10.0 mi NNE 3.5 mph - N/A   Clear
2:54 PM 17.1 °F 11.7 °F -0.0 °F 47% 29.96 in 10.0 mi NNE 3.5 mph - N/A   Mostly Cloudy
3:54 PM 17.1 °F 11.7 °F -0.9 °F 45% 29.96 in 10.0 mi North 3.5 mph - N/A   Overcast
4:54 PM 16.0 °F 10.4 °F -2.0 °F 45% 29.95 in 10.0 mi NNE 3.5 mph - N/A   Overcast
5:54 PM 15.1 °F - 1.0 °F 54% 29.96 in 10.0 mi Calm Calm - N/A   Overcast
6:54 PM 14.0 °F - 3.0 °F 62% 29.96 in 10.0 mi Calm Calm - N/A   Overcast
7:54 PM 14.0 °F 8.2 °F 5.0 °F 67% 29.96 in 6.0 mi NNE 3.5 mph - N/A   Haze
8:54 PM 12.9 °F 5.2 °F 6.1 °F 74% 29.94 in 5.0 mi North 4.6 mph - N/A   Haze
9:54 PM 10.9 °F 2.9 °F 6.1 °F 81% 29.91 in 3.0 mi North 4.6 mph - 0.00 in Snow Light Snow
10:13 PM 10.4 °F 0.8 °F 6.8 °F 85% 29.85 in 9.0 mi North 5.8 mph - 0.00 in   Overcast
10:54 PM 10.0 °F 1.8 °F 5.0 °F 80% 29.89 in 10.0 mi Variable 4.6 mph - 0.00 in   Overcast
11:54 PM 9.0 °F 2.4 °F 5.0 °F 84% 29.84 in 8.0 mi North 3.5 mph - N/A   Overcast